Regional Weather Roundup
Issued by NWS

Home | Current Version | Previous Version | Text Only | Print | Product List | Glossary On
Versions: 1 2 3 4 5 6 7 8 9 10 11 12 13 14 15 16 17 18 19 20 21 22 23 24 25 26 27 28 29 30 31 32 33 34 35 36 37 38 39 40 41 42 43 44 45 46 47 48 49 50
000
ASUS43 KLSX 251459
RWRMO

WEATHER SUMMARY FOR MISSOURI
NATIONAL WEATHER SERVICE SPRINGFIELD MO
1000 AM CDT SUN JUN 25 2017

NOTE: "FAIR" INDICATES FEW OR NO CLOUDS BELOW 12,000 FEET WITH NO
       SIGNIFICANT WEATHER AND/OR OBSTRUCTIONS TO VISIBILITY.
       CURRENT SKY AND/OR WEATHER CONDITIONS ARE NOT AVAILABLE FOR
       CHILLICOTHE AND FARMINGTON.

MOZ001>031-035>038-043-044-053-054-251600-
...NORTHERN AND WESTERN MISSOURI...

CITY           SKY/WX    TMP DP  RH WIND       PRES   REMARKS
KANSAS CTY INT MOSUNNY   71  50  47 N8        30.30S
KANSAS C DTWN  SUNNY     73  48  41 N8        30.29S
LEE`S SUMMIT   SUNNY     71  48  43 N9        30.30S
ST JOSEPH      SUNNY     70  47  43 N13G21    30.31S
CHILLICOTHE      N/A     70  43  37 NW8G21    30.29R
KIRKSVILLE     SUNNY     69  47  45 NW12      30.26S

$$
MOZ066>068-077>081-088>096-101>105-251600-
...SOUTHWEST MISSOURI...

CITY           SKY/WX    TMP DP  RH WIND       PRES   REMARKS
SPRINGFIELD    SUNNY     76  53  44 W8        30.29S
JOPLIN         SUNNY     78  60  53 NW7       30.30S
BRANSON        MOSUNNY   75  52  43 CALM      30.31S

$$
MOZ032>034-039>042-045>050-055>058-069>072-251600-
...CENTRAL MISSOURI...

CITY           SKY/WX    TMP DP  RH WIND       PRES   REMARKS
COLUMBIA       SUNNY     72  55  55 NW10      30.26R
JEFFERSON CITY SUNNY     73  52  47 NW12      30.25R
ROLLA          SUNNY     73  53  49 W10       30.25F
SEDALIA        SUNNY     73  56  54 NW9       30.28R
WARRENSBURG    SUNNY     70  52  52 NW8       30.28R
OSAGE BEACH    SUNNY     73  54  51 NW7       30.27F

$$
MOZ051-052-059>065-251600-
...EAST CENTRAL MISSOURI...

CITY           SKY/WX    TMP DP  RH WIND       PRES   REMARKS
ST LOUIS INTL  MOSUNNY   76  52  43 NW12      30.22S
SPIRIT OF STL  MOSUNNY   74  55  51 W9        30.22R
ST CHARLES     SUNNY     70  53  54 W6        30.22R

$$
MOZ072>076-082>087-097>100-106>115-251600-
...SOUTH CENTRAL AND SOUTHEAST MISSOURI...

CITY           SKY/WX    TMP DP  RH WIND       PRES   REMARKS
CAPE GIRARDEAU SUNNY     73  56  54 W7        30.24S
FARMINGTON     SUNNY     76  51  41 W8G16     30.26S
POPLAR BLUFF   SUNNY     77  56  48 NW5       30.25S
WEST PLAINS    SUNNY     77  47  34 W8        30.30R

$$



USA.gov is the U.S. government's official web portal to all federal, state and local government web resources and services.